STARLINK-3777, 52294

Orbit data source: Space-Track

STARLINK-3777, 52294 is a payload satellite owned by SpaceX/Seattle (US) in LEO that was launched on Thu, 21 Apr 2022 UTC via an FALCON 9 launch vehicle from the Air Force Eastern Test Range (AFETR). Payload-class satellites include a variety of spacecraft equipped with specific instruments for various scientific and technological missions. These include communications satellites like Starlink; space stations such as the ISS; scientific satellites like the Hubble; Earth observation satellites from companies like Planet Labs, Umbra, and HawkEye 360; GPS; miniature CubeSats for education and research; and military/defense satellites.

Loading next visibility...
Identifier
52294, 2022-041AK
Orbit
LEO
Country
Flag of USUS
Related business
Manufacturer
SpaceX/Seattle
Mission
Operational Commercial Communications
Bus & Motor
STARLINK, Unknown motor
Mass
297 kg wet, ~275 kg dry
Launch date (UTC)
2022-04-21 (4 years ago)
Launch vehicle
FALCON 9
Launch site
Air Force Eastern Test Range (AFETR)
Object type
Payload
Rocket body
Debris
Shape & HBR
Box + 1 Pan, 10.1 m
Radar Cross Section
11.087 m², Medium (>0.1 m² and < 1m²)

Expand to show TLE details & history
Last TLE update: 17 hours ago

TLE from 17 hours ago
0 STARLINK-3777
1 52294U 22041AK  26129.88555014  .00000738  00000-0  64459-4 0  9997
2 52294  53.2160 184.4002 0001146  80.3254 279.7868 15.08843941223742
Epoch: 2026-05-09T21:15Z
TLE epoch observation values (Epoch: 2026-05-09T21:15:11.532Z)
Latitude
0.00003°
Longitude
-2.09439°
Altitude
540.494 km
Speed
7.593 km/s
True Right ascension
12h 17m 36s
True Declination
0° 00' 00"
Sunlit
Object was in full shadow at epoch
Visualization orbit readout
Latitude
Unknown
Longitude
Unknown
Altitude
Unknown
Speed
Unknown
Apparent Right ascension
Unknown
Apparent Declination
Unknown
Sunlit
N/A
Visualization observer readout
Local Sidereal Time
22:05:20
Azimuth
Unknown
Elevation
Unknown
Doppler factor
Unknown
Orbital elements
Apogee altitude
540.769 km
Perigee altitude
539.184 km
Semi-major axis
6,918.114 km
Eccentricity
0.00011
Inclination
53.216°
RAAN
184.4002°
Arg. of periapsis
80.3254°
True anomaly
279.77386°
Mean anomaly
279.7868°
Eccentric anomaly
279.78033°
Mean motion
3.77191 °/min
Orbital period
95.44 mins
BSTAR
0.000064459
Loading maneuver chart data...
Computing Atmospheric mass density...
Loading historical data...
Loading historical data...
Loading historical data...
Loading historical data...
Loading historical data...
Loading historical data...
Loading historical data...

Documentation

Showing up to 5 results
|